TimePST,TemperatureF,Dew PointF,Humidity,Sea Level PressureIn,VisibilityMPH,Wind Direction,Wind SpeedMPH,Gust SpeedMPH,PrecipitationIn,Events,Conditions,WindDirDegrees,DateUTC
12:53 AM,46.0,26.1,46,29.84,10.0,SSE,6.9,-,N/A,,Clear,150,2013-02-07 08:53:00
1:53 AM,46.0,26.1,46,29.85,10.0,South,4.6,-,N/A,,Scattered Clouds,180,2013-02-07 09:53:00
2:53 AM,44.1,27.0,51,29.86,10.0,SW,6.9,-,N/A,,Overcast,220,2013-02-07 10:53:00
3:53 AM,43.0,28.9,58,29.86,10.0,ESE,4.6,-,N/A,,Overcast,120,2013-02-07 11:53:00
4:53 AM,42.1,30.9,65,29.88,10.0,SSE,3.5,-,N/A,,Overcast,160,2013-02-07 12:53:00
5:53 AM,39.9,32.0,73,29.90,10.0,WNW,16.1,-,0.00,,Overcast,290,2013-02-07 13:53:00
6:53 AM,39.9,34.0,79,29.93,10.0,SW,6.9,-,N/A,,Overcast,230,2013-02-07 14:53:00
7:53 AM,39.0,33.1,79,29.95,10.0,West,13.8,-,0.00,Rain,Light Rain,260,2013-02-07 15:53:00
8:53 AM,39.9,30.9,70,29.98,10.0,SW,6.9,-,0.00,,Overcast,220,2013-02-07 16:53:00
9:53 AM,39.9,32.0,73,29.98,10.0,SW,13.8,-,0.00,Rain,Light Rain,220,2013-02-07 17:53:00
10:53 AM,39.9,32.0,73,29.99,10.0,South,5.8,-,0.00,,Overcast,190,2013-02-07 18:53:00
11:53 AM,41.0,28.9,62,29.97,10.0,WSW,5.8,-,0.00,,Overcast,250,2013-02-07 19:53:00
12:53 PM,41.0,30.0,65,29.96,10.0,WSW,8.1,-,N/A,,Overcast,250,2013-02-07 20:53:00
1:53 PM,41.0,28.0,60,29.95,10.0,West,15.0,-,N/A,,Overcast,260,2013-02-07 21:53:00
2:53 PM,41.0,28.0,60,29.96,10.0,South,5.8,-,N/A,,Overcast,190,2013-02-07 22:53:00
3:53 PM,41.0,28.9,62,29.96,10.0,Calm,Calm,-,N/A,,Overcast,0,2013-02-07 23:53:00
4:53 PM,39.9,32.0,73,29.97,10.0,SSE,5.8,-,N/A,,Overcast,160,2013-02-08 00:53:00
5:53 PM,37.9,28.9,70,29.99,10.0,SSW,6.9,-,N/A,,Overcast,200,2013-02-08 01:53:00
6:53 PM,37.9,28.0,68,30.01,10.0,South,9.2,-,N/A,,Overcast,190,2013-02-08 02:53:00
7:53 PM,36.0,28.0,73,30.02,10.0,South,8.1,-,N/A,,Mostly Cloudy,190,2013-02-08 03:53:00
8:53 PM,35.1,28.0,76,30.02,10.0,South,9.2,-,N/A,,Clear,190,2013-02-08 04:53:00
9:53 PM,32.0,26.6,80,30.02,10.0,South,6.9,-,N/A,,Clear,170,2013-02-08 05:53:00
10:53 PM,30.9,25.0,79,30.05,10.0,SSE,6.9,-,N/A,,Clear,160,2013-02-08 06:53:00
11:53 PM,30.0,25.0,82,30.07,10.0,South,5.8,-,N/A,,Clear,170,2013-02-08 07:53:00